Content
SEND FEEDBACK

Daily
Averages
Monthly
Summary
United States of America

AUDUBON, NEW JERSEY


Home > North America > United States > New Jersey
Elevation: 1 meter     Latitude: 39 53N     Longitude: 075 05W

WEATHER
 
SELECT A DAY
Number of Records: 207,672;   Date Range: 1/1/95 - 10/19/14
 
SHARE

PRINT THIS DATA

[ ← Previous Day ]
WEATHER ALMANAC - 13 FEBRUARY, 2013
[ Next Day → ]
[ °F ]   °C
Weather ElementAverageHighLow
Temperature2.3 °C7.2 °C (2:54 pm)-1.7 °C (6:54 am)
Dewpoint-1.6 °C1 °C (7:51 pm)-5 °C (1:54 am)
Humidity77.6 %100 % (9:04 pm)48 % (2:54 pm)
Barometer1008.5 hPa1015.2 hPa (1:54 am)1005.4 hPa (4:54 pm)
Wind Speed9.3 km/h16.7 km/h (3:54 pm)
Wind Gust25.9 km/h (3:54 pm)
Weather ElementAverage
Visibility10.1 km
Wind DirectionSE (132.2 °)

Weather ElementTotal
Precipitation16.51 mm
Heating Degree Days15.6 (Base 18.3)
Averaged from 37 records on 13 February, 2013
WEATHER CONDITIONS BREAKOUT
WIND DIRECTION BREAKOUT
WEATHER BY HOUR - 13 FEBRUARY, 2013
[ °F ]   °C
Local TimeTemperatureDewpointHumidityBarometerVisibilityWind DirectionWind SpeedGust SpeedPrecipitationEventsConditions
1:54 AM0 °C-5 °C69 %1015.2 hPa16.1 kmNorth (350°)9.3 km/hScattered Clouds
2:54 AM0.6 °C-5 °C66 %1014.6 hPa16.1 kmCalmScattered Clouds
3:54 AM-0.6 °C-5 °C72 %1013.9 hPa16.1 kmCalmPartly Cloudy
4:54 AM-0.6 °C-5 °C72 %1013.9 hPa16.1 kmNNW (340°)7.4 km/hPartly Cloudy
5:54 AM0 °C-4.4 °C73 %1013.5 hPa16.1 kmNNW (340°)5.6 km/hMostly Cloudy
6:54 AM-1.7 °C-4.4 °C82 %1013.5 hPa16.1 kmCalmScattered Clouds
7:54 AM0 °C-3.3 °C79 %1013.2 hPa16.1 kmCalmScattered Clouds
8:54 AM1.7 °C-2.8 °C72 %1012.9 hPa16.1 kmCalmMostly Cloudy
9:54 AM3.3 °C-4.4 °C57 %1012.9 hPa16.1 kmENE (70°)9.3 km/hMostly Cloudy
10:54 AM4.4 °C-4.4 °C53 %1011.9 hPa16.1 kmENE (60°)9.3 km/hOvercast
11:54 AM5 °C-4.4 °C51 %1010.8 hPa16.1 kmENE (70°)11.1 km/hOvercast
12:54 PM5.6 °C-3.9 °C51 %1009.5 hPa16.1 kmENE (70°)13 km/hMostly Cloudy
1:54 PM6.1 °C-3.9 °C49 %1008.5 hPa16.1 kmENE (60°)11.1 km/hMostly Cloudy
2:54 PM7.2 °C-3.3 °C48 %1007.1 hPa16.1 kmENE (60°)13 km/hMostly Cloudy
3:54 PM7.2 °C-3.3 °C48 %1006.4 hPa16.1 kmNE (40°)16.7 km/h25.9 km/hOvercast
4:54 PM6.7 °C-3.3 °C49 %1005.4 hPa16.1 kmNE (40°)16.7 km/hOvercast
5:54 PM6.1 °C-2.8 °C53 %1005.8 hPa16.1 kmNE (40°)14.8 km/h0 mmOvercast
6:41 PM5 °C-1 °C65 %1005.8 hPa9.7 kmEast (90°)13 km/h0.25 mmRainLight Rain
6:54 PM4.4 °C0.6 °C77 %1006.1 hPa9.7 kmEast (90°)11.1 km/h0.25 mmRainLight Rain
7:51 PM2 °C1 °C93 %1006.1 hPa9.7 kmEast (80°)13 km/h1.27 mmRainLight Rain
7:54 PM2.2 °C0.6 °C89 %1006.4 hPa9.7 kmEast (80°)9.3 km/h1.27 mmRainLight Rain
8:06 PM2 °C1 °C93 %1006.1 hPa8 kmNE (50°)11.1 km/h0.51 mmRainLight Rain
8:34 PM2 °C1 °C93 %1006.1 hPa4.8 kmNorth (10°)14.8 km/h1.02 mmRain-SnowLight Rain
8:50 PM2 °C1 °C93 %1006.4 hPa4 kmNorth (10°)9.3 km/h1.78 mmRain-SnowLight Rain
8:54 PM1.7 °C0.6 °C92 %1006.1 hPa4 kmNNE (20°)9.3 km/h1.78 mmRain-SnowLight Rain
9:04 PM1 °C1 °C100 %1006.4 hPa3.2 kmNNE (30°)7.4 km/h0.51 mmSnowLight Snow
9:14 PM1 °C0 °C93 %1006.1 hPa2.4 kmNNE (30°)9.3 km/h1.02 mmSnowLight Snow
9:31 PM1 °C1 °C100 %1006.1 hPa4 kmNNE (30°)7.4 km/h1.52 mmSnowLight Snow
9:54 PM1.7 °C0.6 °C92 %1006.1 hPa4 kmNorth (10°)13 km/h1.78 mmSnowLight Snow
10:05 PM2 °C1 °C93 %1006.1 hPa4.8 kmNorth (360°)14.8 km/h0 mmRain-SnowLight Rain
10:25 PM1 °C0 °C93 %1006.4 hPa2.9 kmNorth (350°)13 km/h0.51 mmSnowLight Snow
10:35 PM1 °C0 °C93 %1006.4 hPa2.9 kmNorth (360°)9.3 km/h0.76 mmSnowLight Snow
10:54 PM0.6 °C0 °C96 %1006.4 hPa2.9 kmNorth (350°)9.3 km/h1.02 mmSnowLight Snow
11:02 PM1 °C0 °C93 %1006.4 hPa2.9 kmNorth (350°)9.3 km/h0.25 mmSnowLight Snow
11:08 PM1 °C0 °C93 %1006.4 hPa4 kmNorth (350°)7.4 km/h0.25 mmSnowLight Snow
11:18 PM1 °C0 °C93 %1006.4 hPa4.8 kmNorth (350°)5.6 km/h0.25 mmSnowLight Snow
11:54 PM1.1 °C0 °C92 %1007.1 hPa4.8 kmNorth (350°)11.1 km/h0.51 mmSnowLight Snow
Hourly data recorded from KPHL, located 0 kilometers away from Audubon, New Jersey







STORIES FROM OUR PARTNERS